DB0LC-2 Weather Reports


Display with metric or nautical units.
time (UTC)temp
F
wind
direction
speed
MPH
gust
MPH
rain 1hr
in
rain 24hr
in
rain mn
in
humidity
%
barometer
mb
20260906211914 68 0 0.0 0.0 0.00 0.00 0.00 61 920.8
20260906210902 68 0 0.0 0.0 0.00 0.00 0.00 59 920.9
20260906205850 68 0 0.0 0.0 0.00 0.00 0.00 61 920.9
20260906204853 68 0 0.0 0.0 0.00 0.00 0.00 60 920.9
20260906203825 68 0 0.0 0.0 0.00 0.00 0.00 57 920.8
20260906202817 68 0 0.0 0.0 0.00 0.00 0.00 61 920.9
20260906202815 68 0 0.0 0.0 0.00 0.00 0.00 61 920.8
20260906201736 68 0 0.0 0.0 0.00 0.00 0.00 58 920.8
20260906200713 68 0 0.0 0.0 0.00 0.00 0.00 61 920.9
20260906195638 68 0 0.0 0.0 0.00 0.00 0.00 59 920.8
20260906193609 68 0 0.0 0.0 0.00 0.00 0.00 60 920.8
20260906192613 68 0 0.0 0.0 0.00 0.00 0.00 57 920.7
20260906192611 68 0 0.0 0.0 0.00 0.00 0.00 57 920.8
20260906185420 68 0 0.0 0.0 0.00 0.00 0.00 61 920.7
20260906183342 68 0 0.0 0.0 0.00 0.00 0.00 61 920.7
20260906182321 68 0 0.0 0.0 0.00 0.00 0.00 61 920.7
20260906182319 68 0 0.0 0.0 0.00 0.00 0.00 61 920.6
20260906181318 68 0 0.0 0.0 0.00 0.00 0.00 57 920.6
20260906180317 68 0 0.0 0.0 0.00 0.00 0.00 61 920.6
20260906175319 68 0 0.0 0.0 0.00 0.00 0.00 59 920.6
20260906174307 68 0 0.0 0.0 0.00 0.00 0.00 61 920.5
20260906173253 68 0 0.0 0.0 0.00 0.00 0.00 60 920.7
20260906172231 69 0 0.0 0.0 0.00 0.00 0.00 60 920.8
20260906171205 68 0 0.0 0.0 0.00 0.00 0.00 60 920.8
20260906170140 68 0 0.0 0.0 0.00 0.00 0.00 57 920.8
20260906165114 68 0 0.0 0.0 0.00 0.00 0.00 60 920.7
20260906164028 68 0 0.0 0.0 0.00 0.00 0.00 57 920.8
20260906161953 68 0 0.0 0.0 0.00 0.00 0.00 59 920.9
20260906160913 69 0 0.0 0.0 0.00 0.00 0.00 60 920.9
20260906155850 68 0 0.0 0.0 0.00 0.00 0.00 60 920.9
20260906154835 69 0 0.0 0.0 0.00 0.00 0.00 59 921.0
20260906152736 68 0 0.0 0.0 0.00 0.00 0.00 57 920.8
20260906151738 68 0 0.0 0.0 0.00 0.00 0.00 60 921.0
20260906150723 68 0 0.0 0.0 0.00 0.00 0.00 58 921.0
20260906145706 68 0 0.0 0.0 0.00 0.00 0.00 60 921.1
20260906144638 68 0 0.0 0.0 0.00 0.00 0.00 59 921.1
20260906142603 68 0 0.0 0.0 0.00 0.00 0.00 60 921.1
20260906141555 68 0 0.0 0.0 0.00 0.00 0.00 57 921.3
20260906141552 68 0 0.0 0.0 0.00 0.00 0.00 57 921.2
20260906140534 68 0 0.0 0.0 0.00 0.00 0.00 60 921.3
20260906134458 69 0 0.0 0.0 0.00 0.00 0.00 60 921.4
20260906133530 68 0 0.0 0.0 0.00 0.00 0.00 60 921.4
20260906132454 68 0 0.0 0.0 0.00 0.00 0.00 56 921.6
20260906131426 68 0 0.0 0.0 0.00 0.00 0.00 60 921.6
20260906131424 68 0 0.0 0.0 0.00 0.00 0.00 60 921.6
20260906130408 68 0 0.0 0.0 0.00 0.00 0.00 58 921.6
20260906124319 68 0 0.0 0.0 0.00 0.00 0.00 60 921.7
20260906123314 69 0 0.0 0.0 0.00 0.00 0.00 59 921.9
20260906122254 68 0 0.0 0.0 0.00 0.00 0.00 60 921.9
20260906121232 68 0 0.0 0.0 0.00 0.00 0.00 57 921.9
20260906121230 68 0 0.0 0.0 0.00 0.00 0.00 57 921.9
20260906115209 68 0 0.0 0.0 0.00 0.00 0.00 59 921.8
20260906114118 69 0 0.0 0.0 0.00 0.00 0.00 60 922.0
20260906114116 69 0 0.0 0.0 0.00 0.00 0.00 60 921.9
20260906111036 68 0 0.0 0.0 0.00 0.00 0.00 60 922.1
20260906111033 68 0 0.0 0.0 0.00 0.00 0.00 60 922.0
20260906104950 69 0 0.0 0.0 0.00 0.00 0.00 60 922.2
20260906103925 68 0 0.0 0.0 0.00 0.00 0.00 60 922.3
20260906103923 68 0 0.0 0.0 0.00 0.00 0.00 60 922.4
20260906102913 68 0 0.0 0.0 0.00 0.00 0.00 57 922.3
20260906100840 68 0 0.0 0.0 0.00 0.00 0.00 60 922.5
20260906095813 69 0 0.0 0.0 0.00 0.00 0.00 56 922.7
20260906094802 68 0 0.0 0.0 0.00 0.00 0.00 60 922.6
20260906093736 68 0 0.0 0.0 0.00 0.00 0.00 59 922.7
20260906092721 69 0 0.0 0.0 0.00 0.00 0.00 59 922.8
20260906090656 68 0 0.0 0.0 0.00 0.00 0.00 59 922.7
20260906090653 68 0 0.0 0.0 0.00 0.00 0.00 59 922.7
20260906085649 68 0 0.0 0.0 0.00 0.00 0.00 60 922.7
20260906084623 68 0 0.0 0.0 0.00 0.00 0.00 60 922.8
20260906083606 68 0 0.0 0.0 0.00 0.00 0.00 57 922.7
20260906083604 68 0 0.0 0.0 0.00 0.00 0.00 57 922.8
20260906081506 68 0 0.0 0.0 0.00 0.00 0.00 60 922.7
20260906080427 68 0 0.0 0.0 0.00 0.00 0.00 57 922.7
20260906080425 68 0 0.0 0.0 0.00 0.00 0.00 57 922.8
20260906075357 68 0 0.0 0.0 0.00 0.00 0.00 60 922.8
20260906074404 68 0 0.0 0.0 0.00 0.00 0.00 60 922.8
20260906073346 68 0 0.0 0.0 0.00 0.00 0.00 57 922.7
20260906072329 68 0 0.0 0.0 0.00 0.00 0.00 60 922.6
20260906071304 68 0 0.0 0.0 0.00 0.00 0.00 60 922.5
20260906070252 68 0 0.0 0.0 0.00 0.00 0.00 58 922.6
20260906070249 68 0 0.0 0.0 0.00 0.00 0.00 58 922.4
20260906065226 68 0 0.0 0.0 0.00 0.00 0.00 60 922.5
20260906063214 68 0 0.0 0.0 0.00 0.00 0.00 59 922.3
20260906061040 68 0 0.0 0.0 0.00 0.00 0.00 60 922.4
20260906060013 68 0 0.0 0.0 0.00 0.00 0.00 59 922.4
20260906054959 69 0 0.0 0.0 0.00 0.00 0.00 58 922.2
20260906053934 68 0 0.0 0.0 0.00 0.00 0.00 60 922.2
20260906052936 68 0 0.0 0.0 0.00 0.00 0.00 60 922.3
20260906052934 68 0 0.0 0.0 0.00 0.00 0.00 60 922.2
20260906050851 68 0 0.0 0.0 0.00 0.00 0.00 60 922.3
20260906045835 68 0 0.0 0.0 0.00 0.00 0.00 60 922.3
20260906044810 68 0 0.0 0.0 0.00 0.00 0.00 56 922.4
20260906043809 68 0 0.0 0.0 0.00 0.00 0.00 60 922.3
20260906042719 68 0 0.0 0.0 0.00 0.00 0.00 60 922.3
20260906041714 68 0 0.0 0.0 0.00 0.00 0.00 57 922.2
20260906040653 68 0 0.0 0.0 0.00 0.00 0.00 60 922.3
20260906035646 68 0 0.0 0.0 0.00 0.00 0.00 60 922.4
20260906033550 69 0 0.0 0.0 0.00 0.00 0.00 60 922.5
20260906032537 68 0 0.0 0.0 0.00 0.00 0.00 60 922.3
20260906031513 68 0 0.0 0.0 0.00 0.00 0.00 58 922.3
20260906025434 68 0 0.0 0.0 0.00 0.00 0.00 60 922.2
20260906022415 68 0 0.0 0.0 0.00 0.00 0.00 60 922.3
20260906021351 68 0 0.0 0.0 0.00 0.00 0.00 60 922.3
20260906020325 68 0 0.0 0.0 0.00 0.00 0.00 57 922.3
20260906015306 68 0 0.0 0.0 0.00 0.00 0.00 60 922.3
20260906015300 68 0 0.0 0.0 0.00 0.00 0.00 60 922.2
20260906014245 68 0 0.0 0.0 0.00 0.00 0.00 59 922.3
20260906012213 68 0 0.0 0.0 0.00 0.00 0.00 60 922.3
20260906010208 69 0 0.0 0.0 0.00 0.00 0.00 60 922.3
20260906005203 68 0 0.0 0.0 0.00 0.00 0.00 60 922.5
20260906004130 68 0 0.0 0.0 0.00 0.00 0.00 60 922.5
20260906003122 69 0 0.0 0.0 0.00 0.00 0.00 58 922.5
20260906002058 68 0 0.0 0.0 0.00 0.00 0.00 61 922.6
20260906001040 68 0 0.0 0.0 0.00 0.00 0.00 60 922.7
20260906000040 69 0 0.0 0.0 0.00 0.00 0.00 59 922.6
20260905235019 68 0 0.0 0.0 0.00 0.00 0.00 61 922.7
20260905234004 68 0 0.0 0.0 0.00 0.00 0.00 59 922.8
20260905232939 69 0 0.0 0.0 0.00 0.00 0.00 60 922.9
20260905231914 68 0 0.0 0.0 0.00 0.00 0.00 60 922.9
20260905225902 68 0 0.0 0.0 0.00 0.00 0.00 60 923.0
20260905224854 68 0 0.0 0.0 0.00 0.00 0.00 60 922.9
20260905223826 68 0 0.0 0.0 0.00 0.00 0.00 56 923.0
20260905222750 68 0 0.0 0.0 0.00 0.00 0.00 60 922.9
20260905221724 68 0 0.0 0.0 0.00 0.00 0.00 60 922.9
20260905215657 68 0 0.0 0.0 0.00 0.00 0.00 60 922.9
20260905214649 68 0 0.0 0.0 0.00 0.00 0.00 58 922.9
20260905214646 68 0 0.0 0.0 0.00 0.00 0.00 58 922.8
20260905213542 68 0 0.0 0.0 0.00 0.00 0.00 60 922.8